Location: Unspecified
(0.0000°N, 0.0000°E)
Time: 06:45:52
(UTC+00:00)

deb Explorer IX - Pass Details

Date: 25 November 2019
Orbit: 546 x 1104 km, 38.8° (Epoch: 11 December)

Event Time Altitude Azimuth Distance (km) Brightness Sun altitude
Rises 05:26:52 0° 336° (NNW) 3,126 ? -4.7°
Reaches altitude 10° 05:30:10 10° 355° (N) 2,094 ? -3.9°
Maximum altitude 05:33:18 17° 37° (NE) 1,581 ? -3.2°
Drops below altitude 10° 05:36:13 10° 78° (ENE) 1,923 ? -2.5°
Sets 05:39:04 0° 99° (E) 2,762 ? -1.8°
